When you browse on this site, cookies collect data to enhance your experience and personalize the content and advertising you see.
Visit our Privacy Policy to learn more. By continuing to use the site, you agree to this use of cookies and data.
  • In Hungary
  • List of Countries
  • For 7 days
  • Water Temperature
  • Satellite Maps
  • Weather Map
  • News
  • Weather Widgets
  • user-avatar
    Login

    Hourly Weather Kavarna

    Today, 19 January, Saturday

    Time Temperature Precipitation Wind Pressure Humidity
    00:00 +5°C° 0 mm 4 mps 761 mmHg 78%
    01:00 +5°C° 0 mm 4 mps 761 mmHg 74%
    02:00 +5°C° 0 mm 3 mps 761 mmHg 71%
    03:00 +5°C° 0 mm 4 mps 761 mmHg 70%
    04:00 +4°C° 0 mm 4 mps 761 mmHg 69%
    05:00 +4°C° 0 mm 4 mps 762 mmHg 69%
    06:00 +2°C° 0 mm 5 mps 762 mmHg 73%
    07:00 +1°C° 0 mm 6 mps 763 mmHg 78%
    08:00 +1°C° 0 mm 6 mps 763 mmHg 83%
    09:00 +1°C° 0 mm 6 mps 764 mmHg 82%
    10:00 +2°C° 0 mm 7 mps 764 mmHg 81%
    11:00 +3°C° 0 mm 7 mps 765 mmHg 80%
    12:00 +3°C° 0 mm 7 mps 765 mmHg 80%
    13:00 +3°C° 0 mm 6 mps 765 mmHg 80%
    14:00 +4°C° 0 mm 6 mps 765 mmHg 79%
    15:00 +3°C° 0 mm 6 mps 765 mmHg 81%
    16:00 +3°C° 0 mm 6 mps 765 mmHg 82%
    17:00 +3°C° 0 mm 6 mps 765 mmHg 84%
    18:00 +3°C° 0.1 mm 6 mps 765 mmHg 85%
    19:00 +3°C° 0.1 mm 6 mps 765 mmHg 85%
    20:00 +3°C° 0.1 mm 5 mps 765 mmHg 86%
    21:00 +3°C° 0.1 mm 5 mps 765 mmHg 87%
    22:00 +3°C° 0.1 mm 5 mps 765 mmHg 87%
    23:00 +3°C° 0.1 mm 5 mps 765 mmHg 88%

    Tomorrow, 20 January, Sunday

    Time Temperature Precipitation Wind Pressure Humidity
    00:00 +3°C° 0.1 mm 5 mps 765 mmHg 88%
    01:00 +3°C° 0.1 mm 5 mps 765 mmHg 89%
    02:00 +4°C° 0.1 mm 4 mps 765 mmHg 89%
    03:00 +4°C° 0.1 mm 4 mps 765 mmHg 89%
    04:00 +4°C° 0.1 mm 4 mps 764 mmHg 90%
    05:00 +4°C° 0.1 mm 4 mps 764 mmHg 90%
    06:00 +4°C° 0.1 mm 4 mps 764 mmHg 91%
    07:00 +4°C° 0.1 mm 4 mps 763 mmHg 91%
    08:00 +5°C° 0.1 mm 4 mps 763 mmHg 92%
    09:00 +5°C° 0 mm 4 mps 763 mmHg 92%
    10:00 +5°C° 0 mm 4 mps 763 mmHg 92%
    11:00 +6°C° 0 mm 4 mps 763 mmHg 92%
    12:00 +6°C° 0 mm 4 mps 762 mmHg 93%
    13:00 +6°C° 0 mm 4 mps 762 mmHg 94%
    14:00 +7°C° 0 mm 4 mps 761 mmHg 94%
    15:00 +7°C° 0 mm 4 mps 761 mmHg 95%
    16:00 +7°C° 0 mm 4 mps 761 mmHg 96%
    17:00 +7°C° 0 mm 4 mps 760 mmHg 96%
    18:00 +7°C° 0 mm 4 mps 760 mmHg 96%
    19:00 +7°C° 0 mm 4 mps 760 mmHg 95%
    20:00 +8°C° 0 mm 3 mps 760 mmHg 95%
    21:00 +7°C° 0.1 mm 4 mps 760 mmHg 95%
    22:00 +7°C° 0.1 mm 4 mps 760 mmHg 95%
    23:00 +7°C° 0.1 mm 5 mps 760 mmHg 96%

    Day after tomorrow, 21 January, Monday

    Time Temperature Precipitation Wind Pressure Humidity
    00:00 +7°C° 0.8 mm 5 mps 760 mmHg 96%
    01:00 +7°C° 0.8 mm 4 mps 760 mmHg 96%
    02:00 +7°C° 0.8 mm 4 mps 760 mmHg 96%
    03:00 +6°C° 0.3 mm 5 mps 760 mmHg 93%
    04:00 +5°C° 0.3 mm 5 mps 760 mmHg 90%
    05:00 +3°C° 0.3 mm 6 mps 760 mmHg 87%
    06:00 +3°C° 0 mm 6 mps 760 mmHg 87%
    07:00 +2°C° 0 mm 6 mps 761 mmHg 88%
    08:00 +2°C° 0 mm 5 mps 761 mmHg 88%
    09:00 +2°C° 0 mm 6 mps 762 mmHg 85%
    10:00 +3°C° 0 mm 6 mps 762 mmHg 83%
    11:00 +3°C° 0 mm 6 mps 762 mmHg 80%
    12:00 +4°C° 0 mm 6 mps 762 mmHg 79%
    13:00 +5°C° 0 mm 5 mps 762 mmHg 78%
    14:00 +5°C° 0 mm 5 mps 762 mmHg 77%
    15:00 +5°C° 0 mm 5 mps 763 mmHg 78%
    16:00 +3°C° 0 mm 5 mps 763 mmHg 78%
    17:00 +3°C° 0 mm 5 mps 763 mmHg 79%
    18:00 +2°C° 0 mm 5 mps 764 mmHg 80%
    19:00 +2°C° 0 mm 5 mps 764 mmHg 80%
    20:00 +2°C° 0 mm 5 mps 764 mmHg 81%
    21:00 +1°C° 0 mm 4 mps 764 mmHg 82%
    22:00 +1°C° 0 mm 4 mps 765 mmHg 83%
    23:00 +1°C° 0 mm 4 mps 765 mmHg 84%

    22 January, Tuesday

    Time Temperature Precipitation Wind Pressure Humidity
    00:00 0°C° 0 mm 4 mps 765 mmHg 85%
    01:00 0°C° 0 mm 4 mps 765 mmHg 86%
    02:00 0°C° 0 mm 4 mps 765 mmHg 87%
    03:00 0°C° 0 mm 4 mps 764 mmHg 87%
    04:00 0°C° 0 mm 4 mps 764 mmHg 88%
    05:00 0°C° 0 mm 4 mps 764 mmHg 89%
    06:00 +1°C° 0 mm 3 mps 764 mmHg 89%
    07:00 +1°C° 0 mm 3 mps 764 mmHg 88%
    08:00 +2°C° 0 mm 3 mps 764 mmHg 88%
    09:00 +2°C° 0 mm 3 mps 763 mmHg 86%
    10:00 +3°C° 0 mm 3 mps 763 mmHg 83%
    11:00 +4°C° 0 mm 3 mps 763 mmHg 81%
    12:00 +4°C° 0 mm 3 mps 762 mmHg 81%
    13:00 +4°C° 0 mm 4 mps 762 mmHg 82%
    14:00 +4°C° 0 mm 4 mps 761 mmHg 82%
    15:00 +4°C° 0 mm 4 mps 761 mmHg 84%
    16:00 +4°C° 0 mm 4 mps 760 mmHg 86%
    17:00 +3°C° 0 mm 5 mps 760 mmHg 88%
    18:00 +3°C° 0.1 mm 5 mps 759 mmHg 89%
    19:00 +4°C° 0.1 mm 6 mps 759 mmHg 90%
    20:00 +4°C° 0.1 mm 6 mps 759 mmHg 91%
    21:00 +4°C° 0.1 mm 6 mps 758 mmHg 92%
    22:00 +4°C° 0.1 mm 6 mps 758 mmHg 92%
    23:00 +5°C° 0.1 mm 7 mps 757 mmHg 93%

    23 January, Wednesday

    Time Temperature Precipitation Wind Pressure Humidity
    00:00 +5°C° 0 mm 6 mps 756 mmHg 94%
    01:00 +5°C° 0 mm 6 mps 756 mmHg 94%
    02:00 +5°C° 0 mm 6 mps 755 mmHg 95%
    03:00 +5°C° 0 mm 6 mps 754 mmHg 95%
    04:00 +5°C° 0 mm 6 mps 754 mmHg 95%
    05:00 +5°C° 0 mm 6 mps 753 mmHg 96%
    06:00 +5°C° 1.2 mm 7 mps 752 mmHg 96%
    07:00 +6°C° 1.2 mm 7 mps 752 mmHg 97%
    08:00 +6°C° 1.2 mm 7 mps 752 mmHg 97%
    09:00 +6°C° 1.1 mm 8 mps 751 mmHg 93%
    10:00 +7°C° 1.1 mm 9 mps 751 mmHg 89%
    11:00 +7°C° 1.1 mm 9 mps 751 mmHg 85%
    12:00 +7°C° 0.7 mm 9 mps 750 mmHg 88%
    13:00 +7°C° 0.7 mm 9 mps 749 mmHg 90%
    14:00 +7°C° 0.7 mm 10 mps 749 mmHg 92%
    15:00 +7°C° 0.3 mm 9 mps 749 mmHg 91%
    16:00 +7°C° 0.3 mm 9 mps 748 mmHg 91%
    17:00 +8°C° 0.3 mm 9 mps 748 mmHg 90%
    18:00 +7°C° 0 mm 8 mps 748 mmHg 88%
    19:00 +7°C° 0 mm 8 mps 749 mmHg 85%
    20:00 +7°C° 0 mm 8 mps 749 mmHg 83%
    21:00 +8°C° 0 mm 7 mps 749 mmHg 85%
    22:00 +7°C° 0 mm 6 mps 750 mmHg 87%
    23:00 +7°C° 0 mm 5 mps 750 mmHg 89%

    24 January, Thursday

    Time Temperature Precipitation Wind Pressure Humidity
    00:00 +6°C° 0 mm 5 mps 750 mmHg 88%
    01:00 +6°C° 0 mm 5 mps 750 mmHg 88%
    02:00 +6°C° 0 mm 5 mps 750 mmHg 88%
    03:00 +6°C° 0 mm 5 mps 750 mmHg 88%
    04:00 +6°C° 0 mm 5 mps 750 mmHg 88%
    05:00 +6°C° 0 mm 5 mps 750 mmHg 88%
    06:00 +6°C° 0 mm 5 mps 750 mmHg 89%
    07:00 +6°C° 0 mm 5 mps 750 mmHg 90%
    08:00 +6°C° 0 mm 5 mps 750 mmHg 91%
    09:00 +7°C° 0 mm 6 mps 750 mmHg 90%
    10:00 +8°C° 0 mm 6 mps 750 mmHg 88%
    11:00 +9°C° 0 mm 6 mps 750 mmHg 87%
    12:00 +9°C° 0.1 mm 6 mps 750 mmHg 88%
    13:00 +8°C° 0.1 mm 6 mps 750 mmHg 89%
    14:00 +8°C° 0.1 mm 6 mps 749 mmHg 90%
    15:00 +8°C° 0.1 mm 6 mps 749 mmHg 91%
    16:00 +8°C° 0.1 mm 5 mps 749 mmHg 92%
    17:00 +7°C° 0.1 mm 5 mps 749 mmHg 94%
    18:00 +7°C° 0.2 mm 5 mps 749 mmHg 94%
    19:00 +7°C° 0.2 mm 5 mps 750 mmHg 95%
    20:00 +8°C° 0.2 mm 5 mps 750 mmHg 95%
    21:00 +8°C° 0.2 mm 6 mps 750 mmHg 94%
    22:00 +8°C° 0.2 mm 6 mps 750 mmHg 93%
    23:00 +8°C° 0.2 mm 7 mps 750 mmHg 92%
    Show more